User: anonymous   Login
Location: Caltech
(34.1382°N, 118.1253°W)
Time: 00:17:21
(UTC-08:00)
Language:

Cosmos 1025 Rocket - Orbit

View from above orbital plane
View from above orbital plane
View from above satellite
View from above satellite

Ground track
Ground track

The orbit data is extracted from the following two-line orbital elements,

1 10974U 78067B   15028.30338935  .00000307  00000-0  31676-4 0  5251
2 10974 082.4819 273.8209 0017003 353.7469 145.5603 14.86844862978148
Epoch (UTC): 28 January 2015 07:16:52
Eccentricity: 0.0017003
inclination: 82.4819°
perigee height: 596 km
apogee height: 619 km
right ascension of ascending node: 273.8209°
argument of perigee: 353.7469°
revolutions per day: 14.86844862
mean anomaly at epoch: 145.5603°
orbit number at epoch: 97814

The dashed part of the orbit path shows where the satellite is in the earth's shadow,  

DLR